Hourly Data Report for October 06, 2013

All times are specified in Local Standard Time (LST). Add 1 hour to adjust for Daylight Saving Time where and when it is observed.

MONCTON INTL A
NEW BRUNSWICK

46°06'44.000" N
64°40'43.000" W
70.70 m
8103201
71705
YQM

Download Data

Hourly Data (October 2013)
Hourly Data Report for October 6, 2013
Temp Definition
°C
Dew Point Temp Definition
°C
Rel Hum Definition
%
Wind Dir Definition
10's deg

Wind Spd Definition
km/h
Visibility Definition
km
Stn Press Definition
kPa
Hmdx Definition


Wind Chill Definition


Weather Definition


TIME
00:00 Legend Double Dagger 5.5 0.7 71 28 9 24.1 101.07     LegendNANA
01:00 Legend Double Dagger 6.0 0.1 66 30 17 24.1 101.10     LegendNANA
02:00 Legend Double Dagger 5.6 -0.2 66 30 19 24.1 101.14     Clear
03:00 Legend Double Dagger 4.3 -0.5 71 29 14 24.1 101.16     LegendNANA
04:00 Legend Double Dagger 4.0 -0.8 71 31 18 24.1 101.21     LegendNANA
05:00 Legend Double Dagger 3.8 -0.8 72 32 20 24.1 101.25     Clear
06:00 Legend Double Dagger 2.8 -1.2 75 30 13 24.1 101.30     LegendNANA
07:00 Legend Double Dagger 3.3 -0.7 75 28 11 24.1 101.38     LegendNANA
08:00 Legend Double Dagger 5.8 0.2 67 31 14 24.1 101.42     Clear
09:00 Legend Double Dagger 7.8 1.2 63 33 14 24.1 101.45     LegendNANA
10:00 Legend Double Dagger 9.9 1.3 55 35 15 24.1 101.51     LegendNANA
11:00 Legend Double Dagger 11.1 2.5 55 34 9 24.1 101.55     Mainly Clear
12:00 Legend Double Dagger 12.0 0.8 46 1 8 24.1 101.53     LegendNANA
13:00 Legend Double Dagger 12.6 1.3 46 33 8 24.1 101.49     LegendNANA
14:00 Legend Double Dagger 13.5 1.6 44 33 8 24.1 101.53     Mainly Clear
15:00 Legend Double Dagger 12.6 4.1 56 5 17 24.1 101.55     LegendNANA
16:00 Legend Double Dagger 12.1 3.6 56 5 11 24.1 101.56     LegendNANA
17:00 Legend Double Dagger 10.1 4.1 66 7 8 24.1 101.62     Mostly Cloudy
18:00 Legend Double Dagger 7.2 1.5 67 6 11 24.1 101.63     LegendNANA
19:00 Legend Double Dagger 5.3 0.7 72 8 11 24.1 101.69     LegendNANA
20:00 Legend Double Dagger 6.2 1.7 73 15 9 24.1 101.75     Mainly Clear
21:00 Legend Double Dagger 5.7 2.9 82 11 13 24.1 101.74     LegendNANA
22:00 Legend Double Dagger 5.6 3.5 86 15 9 24.1 101.76     LegendNANA
23:00 Legend Double Dagger 5.6 3.8 88 11 4 24.1 101.75     Mainly Clear

Notes on Data Quality.

Legend

  • E = Estimated
  • M = Missing
  • NA = Not Available
  • ‡ = Partner data that is not subject to review by the National Climate Archives
Date modified: